�N����,����,�~����,�C��,���x,�C��,����,���ϕ���,�ő�u�ԕ���,�ő厞����,���˗�,�I�_���x,�n�����x,�ő啗���N��,DTYPE
"16/11/22","00:10",0.0,15.1,96.3,1007.4,325.0,0.6,1.1,305.3,0.00,14.6,15.2,"00:04:08",1
"16/11/22","00:20",0.0,15.2,96.2,1007.4,309.0,0.8,1.6,320.1,0.00,14.6,15.2,"00:19:44",1
"16/11/22","00:30",0.0,15.2,96.3,1007.4,265.3,0.5,1.2,315.5,0.00,14.7,15.3,"00:20:08",1
"16/11/22","00:40",0.4,15.2,96.3,1008.1,344.1,1.2,1.9,346.7,0.00,14.7,15.2,"00:34:58",1
"16/11/22","00:50",0.2,15.3,96.5,1007.6,338.6,0.3,1.6,327.7,0.00,14.8,15.2,"00:40:56",1
"16/11/22","01:00",0.2,15.3,96.6,1007.8,291.9,1.1,1.6,317.1,0.00,14.8,15.1,"00:56:24",1
"16/11/22","01:10",0.4,15.3,96.8,1007.6,316.2,1.6,2.0,323.3,0.00,14.8,15.2,"01:03:44",1
"16/11/22","01:20",0.2,15.3,96.9,1007.6,296.8,1.5,2.0,317.0,0.00,14.9,15.0,"01:11:04",1
"16/11/22","01:30",0.0,15.4,97.0,1007.1,311.7,1.8,2.2,320.4,0.00,15.0,15.2,"01:25:20",1
"16/11/22","01:40",0.2,15.3,97.0,1006.9,310.3,1.5,2.0,324.3,0.00,14.9,15.0,"01:33:04",1
"16/11/22","01:50",0.0,15.3,97.3,1006.9,300.0,1.3,2.1,291.5,0.00,14.9,15.2,"01:48:16",1
"16/11/22","02:00",0.0,15.4,97.3,1006.7,299.2,1.5,2.1,321.6,0.00,15.0,15.2,"01:59:28",1
"16/11/22","02:10",0.0,15.3,97.2,1006.4,334.2,1.5,3.4,328.5,0.00,14.9,15.2,"02:01:12",1
"16/11/22","02:20",0.0,15.2,97.3,1006.7,348.9,0.8,1.7,299.3,0.00,14.8,15.2,"02:16:16",1
"16/11/22","02:30",0.0,15.3,97.5,1006.2,321.9,0.8,1.7,324.5,0.00,14.9,15.2,"02:20:02",1
"16/11/22","02:40",0.0,15.2,97.4,1006.4,300.1,1.6,2.0,300.4,0.00,14.8,15.2,"02:36:56",1
"16/11/22","02:50",0.0,15.2,97.6,1006.7,295.9,1.5,1.9,313.1,0.00,14.9,15.3,"02:40:16",1
"16/11/22","03:00",0.0,15.2,97.5,1006.4,318.4,2.0,2.7,326.0,0.00,14.8,15.1,"02:52:08",1
"16/11/22","03:10",0.0,15.1,97.5,1006.4,295.8,1.3,2.5,326.9,0.00,14.7,15.2,"03:00:08",1
"16/11/22","03:20",0.0,15.0,97.6,1006.0,306.4,1.6,2.0,321.6,0.00,14.7,15.2,"03:11:36",1
"16/11/22","03:30",0.0,14.9,97.5,1005.7,301.3,1.5,2.4,322.4,0.00,14.5,15.2,"03:21:28",1
"16/11/22","03:40",0.0,15.0,97.8,1006.2,308.8,1.7,2.7,313.0,0.00,14.7,15.3,"03:33:44",1
"16/11/22","03:50",0.0,15.1,97.7,1006.2,310.3,2.0,2.9,311.3,0.00,14.8,15.2,"03:43:36",1
"16/11/22","04:00",0.0,15.2,97.6,1006.4,310.8,1.8,2.6,322.5,0.00,14.9,15.1,"03:54:08",1
"16/11/22","04:10",0.0,15.2,97.5,1006.4,320.9,2.2,3.7,334.5,0.00,14.8,15.1,"04:02:48",1
"16/11/22","04:20",0.6,15.3,97.4,1006.4,321.5,2.1,3.2,319.2,0.00,14.9,15.1,"04:16:48",1
"16/11/22","04:30",0.6,15.3,97.4,1006.4,322.7,1.5,2.7,344.2,0.00,14.9,15.1,"04:23:20",1
"16/11/22","04:40",0.0,15.3,97.3,1006.7,326.3,1.7,3.7,339.2,0.00,14.9,15.3,"04:32:40",1
"16/11/22","04:50",0.0,15.3,97.2,1006.2,318.1,1.6,2.8,344.7,0.00,14.9,15.0,"04:41:44",1
"16/11/22","05:00",0.0,15.3,97.2,1006.4,318.3,0.8,1.7,301.4,0.00,14.9,15.1,"04:50:16",1
"16/11/22","05:10",0.0,15.1,97.1,1006.4,307.3,1.1,1.7,305.7,0.00,14.7,15.2,"05:03:52",1
"16/11/22","05:20",0.0,15.0,97.0,1006.9,300.9,1.2,2.4,321.9,0.00,14.6,15.1,"05:11:12",1
"16/11/22","05:30",0.0,14.8,96.9,1006.7,306.6,1.2,1.9,326.4,0.00,14.4,15.0,"05:29:28",1
"16/11/22","05:40",0.0,14.5,96.7,1006.9,299.4,1.2,1.9,313.1,0.00,14.0,15.1,"05:38:00",1
"16/11/22","05:50",0.0,14.4,96.8,1006.7,303.1,1.6,2.9,344.9,0.00,13.9,15.2,"05:46:32",1
"16/11/22","06:00",0.0,14.3,96.4,1006.9,305.9,1.5,2.4,317.0,0.00,13.8,15.1,"05:51:12",1
"16/11/22","06:10",0.0,14.3,96.4,1006.9,310.1,2.2,4.1,343.5,0.00,13.8,15.0,"06:04:08",1
"16/11/22","06:20",0.0,14.7,95.3,1007.1,303.6,2.2,4.3,327.0,0.00,14.0,15.0,"06:13:04",1
"16/11/22","06:30",0.0,14.2,94.8,1007.6,299.0,1.2,2.8,337.0,0.00,13.4,14.8,"06:29:20",1
"16/11/22","06:40",0.0,13.9,94.9,1007.6,298.3,1.5,2.5,348.0,0.00,13.1,14.8,"06:33:52",1
"16/11/22","06:50",0.0,13.6,95.2,1007.6,302.1,1.5,2.1,338.1,0.00,12.9,14.7,"06:48:24",1
"16/11/22","07:00",0.0,13.2,95.4,1007.6,303.2,1.1,1.7,306.0,0.00,12.5,14.5,"06:50:24",1
"16/11/22","07:10",0.0,13.0,96.5,1007.1,308.0,1.6,3.3,340.7,0.00,12.5,14.8,"07:04:22",1
"16/11/22","07:20",0.0,13.2,96.8,1007.4,293.5,1.3,3.7,352.6,0.00,12.7,14.6,"07:13:50",1
"16/11/22","07:30",0.0,13.4,96.9,1007.1,302.3,0.8,1.9,337.2,0.00,13.0,14.9,"07:20:08",1
"16/11/22","07:40",0.0,13.6,97.4,1007.4,282.2,1.2,2.0,333.2,0.01,13.2,14.6,"07:33:44",1
"16/11/22","07:50",0.0,13.9,97.1,1007.4,310.7,0.7,1.2,333.5,0.03,13.5,14.8,"07:40:48",1
"16/11/22","08:00",0.0,14.5,96.5,1007.6,294.9,1.0,1.8,331.9,0.04,14.0,14.5,"07:52:00",1
"16/11/22","08:10",0.0,15.3,94.6,1007.8,284.2,0.8,1.2,321.2,0.06,14.5,14.7,"08:00:08",1
"16/11/22","08:20",0.0,15.7,90.0,1007.6,282.4,1.0,2.0,319.8,0.07,14.1,14.5,"08:19:04",1
"16/11/22","08:30",0.0,16.3,88.0,1008.1,304.6,1.1,2.1,320.0,0.10,14.4,14.6,"08:21:20",1
"16/11/22","08:40",0.0,16.7,86.4,1008.1,283.5,0.8,1.7,249.1,0.12,14.5,14.7,"08:32:16",1
"16/11/22","08:50",0.0,16.8,85.1,1008.3,259.9,1.2,3.1,240.3,0.15,14.3,14.8,"08:42:24",1
"16/11/22","09:00",0.0,17.4,83.3,1008.1,285.5,0.7,2.0,245.1,0.18,14.6,14.9,"08:50:02",1
"16/11/22","09:10",0.0,17.6,82.9,1008.8,262.6,0.7,1.9,227.1,0.20,14.7,15.1,"09:03:20",1
"16/11/22","09:20",0.0,18.0,79.8,1008.1,296.5,1.0,2.8,250.7,0.22,14.5,15.0,"09:10:02",1
"16/11/22","09:30",0.0,18.1,78.8,1008.1,278.0,1.0,3.3,235.4,0.27,14.4,15.3,"09:20:08",1
"16/11/22","09:40",0.0,18.5,78.0,1008.1,296.7,1.1,2.7,342.0,0.30,14.6,15.3,"09:38:00",1
"16/11/22","09:50",0.0,18.8,76.0,1007.8,317.6,1.0,3.2,347.2,0.30,14.5,15.6,"09:40:02",1
"16/11/22","10:00",0.0,19.0,74.7,1007.8,314.9,1.2,3.5,332.5,0.33,14.4,15.8,"09:50:48",1
"16/11/22","10:10",0.0,18.6,75.2,1007.6,301.9,1.1,3.9,348.5,0.24,14.2,15.7,"10:02:00",1
"16/11/22","10:20",0.0,19.2,72.8,1007.4,286.3,0.7,2.0,346.1,0.34,14.2,15.8,"10:11:36",1
"16/11/22","10:30",0.0,19.0,71.4,1007.4,256.5,1.5,3.4,339.1,0.35,13.8,16.2,"10:28:40",1
"16/11/22","10:40",0.0,19.7,69.7,1007.1,329.0,1.1,2.8,339.4,0.37,14.1,16.2,"10:34:48",1
"16/11/22","10:50",0.0,19.7,66.3,1007.1,316.4,1.1,3.7,344.2,0.37,13.3,16.4,"10:48:56",1
"16/11/22","11:00",0.0,18.9,67.1,1006.7,344.6,1.8,3.7,351.2,0.24,12.7,16.3,"10:57:12",1
"16/11/22","11:10",0.0,19.4,68.3,1006.9,317.2,1.3,2.9,338.9,0.26,13.5,16.4,"11:01:36",1
"16/11/22","11:20",0.0,19.6,65.3,1007.1,340.8,2.3,4.4,344.0,0.39,13.0,16.6,"11:15:44",1
"16/11/22","11:30",0.0,19.6,65.2,1006.7,340.0,2.0,4.1,325.5,0.39,12.9,16.8,"11:25:36",1
"16/11/22","11:40",0.0,20.0,61.7,1006.4,348.1,1.2,2.5,336.3,0.43,12.5,16.8,"11:34:00",1
"16/11/22","11:50",0.0,20.0,62.7,1006.2,358.2,1.0,2.2,51.6,0.43,12.7,17.0,"11:42:24",1
"16/11/22","12:00",0.0,20.3,61.9,1005.2,298.0,1.2,4.1,229.4,0.45,12.8,17.4,"11:54:24",1
"16/11/22","12:10",0.0,20.4,64.2,1005.5,356.5,1.6,4.1,12.0,0.44,13.5,17.3,"12:09:12",1
"16/11/22","12:20",0.0,20.5,62.2,1005.5,332.6,1.3,3.2,340.2,0.45,13.1,17.3,"12:15:28",1
"16/11/22","12:30",0.0,20.7,60.1,1005.2,342.1,1.6,3.6,338.0,0.45,12.7,17.4,"12:26:56",1
"16/11/22","12:40",0.0,20.6,57.9,1004.8,332.1,1.3,2.8,337.1,0.42,12.1,17.5,"12:30:40",1
"16/11/22","12:50",0.0,20.9,56.4,1004.8,335.6,1.0,2.4,355.0,0.44,12.0,17.7,"12:46:48",1
"16/11/22","13:00",0.0,20.8,60.0,1004.8,264.1,1.1,2.8,237.2,0.41,12.8,17.8,"12:54:16",1
"16/11/22","13:10",0.0,20.7,59.4,1004.5,285.6,1.7,4.1,242.9,0.44,12.6,17.9,"13:09:52",1
"16/11/22","13:20",0.0,20.4,60.3,1004.5,250.0,2.0,5.0,239.1,0.40,12.5,18.1,"13:17:36",1
"16/11/22","13:30",0.0,20.8,59.6,1004.5,296.2,1.3,3.3,214.0,0.38,12.7,18.2,"13:20:02",1
"16/11/22","13:40",0.0,20.8,57.4,1004.3,309.6,1.6,4.8,352.5,0.43,12.1,18.4,"13:39:52",1
"16/11/22","13:50",0.0,20.9,57.2,1004.5,280.8,1.5,3.5,0.3,0.40,12.2,18.5,"13:45:20",1
"16/11/22","14:00",0.0,21.1,59.4,1005.0,291.4,1.6,5.0,227.9,0.38,12.9,18.5,"13:55:44",1
"16/11/22","14:10",0.0,21.2,56.8,1004.8,270.4,1.2,3.6,233.8,0.32,12.3,18.6,"14:00:02",1
"16/11/22","14:20",0.0,20.5,56.9,1005.0,277.4,1.5,3.6,236.6,0.29,11.7,18.4,"14:10:16",1
"16/11/22","14:30",0.0,20.3,57.7,1004.5,307.0,1.5,3.7,347.7,0.24,11.7,18.7,"14:26:08",1
"16/11/22","14:40",0.0,20.2,57.9,1004.8,304.1,1.7,4.5,331.4,0.22,11.7,18.6,"14:31:36",1
"16/11/22","14:50",0.0,19.9,55.9,1005.2,302.2,1.3,3.9,342.6,0.20,10.9,18.5,"14:47:44",1
"16/11/22","15:00",0.0,20.0,55.7,1005.5,325.8,1.5,3.4,343.4,0.17,10.9,18.6,"14:57:20",1
"16/11/22","15:10",0.0,19.7,56.1,1005.5,310.7,1.7,4.2,343.0,0.15,10.8,18.6,"15:05:52",1
"16/11/22","15:20",0.0,19.4,56.1,1005.7,283.0,1.5,3.5,324.9,0.12,10.5,18.5,"15:18:40",1
"16/11/22","15:30",0.0,19.1,55.9,1005.7,298.9,1.5,3.2,337.9,0.07,10.1,18.4,"15:28:40",1
"16/11/22","15:40",0.0,19.0,56.4,1006.0,315.8,2.0,3.3,323.9,0.08,10.2,18.2,"15:34:56",1
"16/11/22","15:50",0.0,18.5,57.4,1005.7,324.4,2.0,2.9,337.8,0.05,10.0,18.4,"15:46:16",1
"16/11/22","16:00",0.0,18.6,59.5,1006.2,345.5,1.5,2.7,358.2,0.04,10.6,18.1,"15:59:04",1
"16/11/22","16:10",0.0,18.2,61.5,1006.2,351.4,1.7,2.8,351.2,0.02,10.7,18.1,"16:08:16",1
"16/11/22","16:20",0.0,17.6,64.4,1006.2,342.2,1.3,2.4,344.0,0.01,10.9,18.1,"16:11:36",1
"16/11/22","16:30",0.0,17.1,65.6,1006.2,337.7,1.3,2.5,342.6,0.00,10.7,17.9,"16:29:20",1
"16/11/22","16:40",0.0,16.7,68.8,1006.4,321.6,1.2,2.5,332.8,0.00,11.0,17.7,"16:30:32",1
"16/11/22","16:50",0.0,16.2,70.0,1006.4,300.3,0.7,1.6,345.6,0.00,10.8,17.7,"16:42:24",1
"16/11/22","17:00",0.0,15.5,73.8,1006.7,322.9,1.2,1.8,343.9,0.00,10.9,17.4,"16:54:48",1
"16/11/22","17:10",0.0,14.9,76.7,1006.9,302.7,1.1,1.8,316.2,0.00,10.9,17.4,"17:07:52",1
"16/11/22","17:20",0.0,14.5,78.7,1007.4,319.1,1.2,2.0,332.8,0.00,10.9,17.2,"17:14:24",1
"16/11/22","17:30",0.0,14.2,79.9,1007.1,287.2,1.0,1.9,351.1,0.00,10.8,17.1,"17:25:20",1
"16/11/22","17:40",0.0,14.0,81.0,1007.1,281.6,1.1,1.4,310.2,0.00,10.8,17.0,"17:34:08",1
"16/11/22","17:50",0.0,13.8,81.7,1007.1,299.2,1.2,1.7,279.9,0.00,10.8,17.0,"17:45:44",1
"16/11/22","18:00",0.0,13.5,83.0,1007.4,284.0,1.0,1.6,304.6,0.00,10.7,16.9,"17:53:28",1
"16/11/22","18:10",0.0,13.2,84.1,1008.1,305.6,1.0,1.4,321.3,0.00,10.6,16.7,"18:07:52",1
"16/11/22","18:20",0.0,12.9,85.4,1008.1,296.6,1.0,1.8,315.5,0.00,10.6,16.6,"18:18:24",1
"16/11/22","18:30",0.0,12.8,86.3,1007.6,284.3,1.0,1.4,302.2,0.00,10.6,16.3,"18:20:58",1
"16/11/22","18:40",0.0,12.7,86.8,1008.1,308.4,1.5,2.4,319.8,0.00,10.6,16.4,"18:37:36",1
"16/11/22","18:50",0.0,12.8,87.4,1007.6,327.7,1.8,3.2,335.0,0.00,10.8,16.4,"18:44:24",1
"16/11/22","19:00",0.0,12.8,87.2,1007.8,307.3,1.6,2.7,326.2,0.00,10.8,16.1,"18:58:26",1
"16/11/22","19:10",0.0,12.7,87.0,1008.1,311.9,1.3,2.4,314.3,0.00,10.6,16.1,"19:03:44",1
"16/11/22","19:20",0.0,12.6,87.3,1008.1,282.7,1.2,1.7,310.6,0.00,10.6,15.9,"19:17:20",1
"16/11/22","19:30",0.0,12.4,87.5,1008.1,287.7,1.1,1.4,309.5,0.00,10.4,16.0,"19:23:20",1
"16/11/22","19:40",0.0,12.2,88.3,1008.3,303.2,1.1,1.9,345.9,0.00,10.4,15.7,"19:39:04",1
"16/11/22","19:50",0.0,12.1,88.4,1008.3,325.8,0.7,1.7,320.2,0.00,10.3,15.9,"19:40:16",1
"16/11/22","20:00",0.0,11.9,89.3,1008.1,340.3,0.8,1.8,345.3,0.00,10.2,15.7,"19:54:00",1
"16/11/22","20:10",0.0,11.5,90.1,1008.6,275.3,1.1,1.7,317.7,0.00,10.0,15.7,"20:09:12",1
"16/11/22","20:20",0.0,11.5,91.1,1008.6,293.2,1.2,1.7,306.7,0.00,10.1,15.6,"20:12:48",1
"16/11/22","20:30",0.0,11.7,91.6,1008.8,292.3,1.1,1.9,306.3,0.00,10.4,15.5,"20:24:24",1
"16/11/22","20:40",0.0,11.9,91.6,1008.3,306.7,1.1,2.8,339.8,0.00,10.6,15.5,"20:39:48",1
"16/11/22","20:50",0.0,12.3,90.7,1008.6,337.9,1.0,2.1,340.6,0.00,10.9,15.3,"20:41:28",1
"16/11/22","21:00",0.0,12.3,89.9,1008.3,299.9,0.3,1.1,293.7,0.00,10.7,15.3,"20:59:36",1
"16/11/22","21:10",0.0,12.0,90.2,1008.3,300.5,1.1,1.8,324.0,0.00,10.5,15.2,"21:00:02",1
"16/11/22","21:20",0.0,11.6,90.9,1008.3,313.3,1.2,1.6,311.8,0.00,10.2,15.2,"21:11:52",1
"16/11/22","21:30",0.0,11.2,91.7,1008.3,283.4,0.8,1.3,317.2,0.00,9.9,15.2,"21:27:18",1
"16/11/22","21:40",0.0,11.1,92.5,1008.3,316.1,1.0,1.9,316.4,0.00,10.0,15.1,"21:35:28",1
"16/11/22","21:50",0.0,11.5,93.2,1008.3,321.0,1.7,3.2,314.0,0.00,10.5,15.1,"21:49:16",1
"16/11/22","22:00",0.0,12.3,92.1,1008.1,324.7,2.1,3.4,323.1,0.00,11.1,15.2,"21:54:18",1
"16/11/22","22:10",0.0,12.5,89.9,1008.1,321.6,1.8,3.5,316.8,0.00,10.9,14.9,"22:00:08",1
"16/11/22","22:20",0.0,12.3,89.4,1008.6,316.2,1.7,2.7,353.2,0.00,10.6,14.9,"22:16:28",1
"16/11/22","22:30",0.0,12.4,89.5,1009.3,321.1,2.2,3.5,329.8,0.00,10.8,15.0,"22:21:44",1
"16/11/22","22:40",0.0,12.7,89.0,1009.0,333.0,1.8,3.5,348.1,0.00,11.0,15.0,"22:38:10",1
"16/11/22","22:50",0.0,12.9,88.2,1009.0,327.1,1.5,2.5,345.0,0.00,11.0,15.0,"22:44:48",1
"16/11/22","23:00",0.0,13.0,87.8,1008.8,326.2,1.0,1.9,344.7,0.00,11.1,14.8,"22:55:28",1
"16/11/22","23:10",0.0,13.0,87.5,1008.3,8.1,0.5,1.2,335.2,0.00,11.0,14.7,"23:00:08",1
"16/11/22","23:20",0.0,12.8,87.9,1008.3,304.8,0.6,1.3,312.4,0.00,10.9,15.1,"23:18:48",1
"16/11/22","23:30",0.0,12.6,88.9,1008.1,330.4,1.5,2.4,343.8,0.00,10.9,14.7,"23:29:30",1
"16/11/22","23:40",0.0,12.9,89.1,1008.3,320.8,1.7,2.5,331.1,0.00,11.2,15.0,"23:36:48",1
"16/11/22","23:50",0.0,13.4,88.2,1008.3,321.6,2.1,3.9,324.7,0.00,11.5,14.8,"23:46:08",1
"16/11/22","24:00",0.0,13.6,86.9,1008.1,322.1,2.3,4.5,332.3,0.00,11.5,14.8,"23:50:40",1
